Location: Azul
(36.7830°S, 59.8500°W)
Time: 23:43:58
(UTC-03:00)

STARS - Pass Details

Date: 28 October 2021
Orbit: 623 x 638 km, 98.2° (Epoch: 30 November)

Event Time Altitude Azimuth Distance (km) Brightness Sun altitude
Exits shadow 21:28:57 20° 128° (SE) 1,460 ? -22.1°
Drops below altitude 10° 21:31:28 10° 161° (SSE) 2,030 ? -22.5°
Sets 21:34:05 0° 176° (S) 2,944 ? -22.9°
